Printer-friendly version

IAU Minor Planet Center

Minor Planet Center

MPEC 2004-E06 : COMET P/2004 A1

The following Minor Planet Electronic Circular may be linked-to from your own Web pages, but must not otherwise be redistributed electronically.


Read MPEC 2004-E05 Read MPEC 2004-E07


M.P.E.C. 2004-E06                                Issued 2004 Mar. 1, 17:15 UT

     The Minor Planet Electronic Circulars contain information on unusual
         minor planets and routine data on comets.  They are published
   on behalf of Commission 20 of the International Astronomical Union by the
          Minor Planet Center, Smithsonian Astrophysical Observatory,
                          Cambridge, MA 02138, U.S.A.

         Supported in part by the Steven and Michele Kirsch Foundation
             Prepared using the Tamkin Foundation Computer Network

                              MPC@CFA.HARVARD.EDU
          URL http://cfa-www.harvard.edu/iau/mpc.html  ISSN 1523-6714

                                COMET P/2004 A1

Observations:
    PK04A010  C2004 02 14.90478 08 31 00.50 +19 43 58.3          18.7 N EE006130
    PK04A010  C2004 02 14.91488 08 31 00.26 +19 43 59.9          18.8 N EE006130
    PK04A010  C2004 02 14.92509 08 30 59.97 +19 44 00.8          18.6 N EE006130
    PK04A010  C2004 02 16.63744 08 30 18.55 +19 48 18.8          18.3 T EE006D83
    PK04A010  C2004 02 16.63936 08 30 18.63 +19 48 23.4          18.3 T EE006D83
    PK04A010  C2004 02 16.64304 08 30 18.39 +19 48 24.8          18.4 T EE006D83
    PK04A010  C2004 02 20.83268 08 28 42.48 +19 58 37.2          18.1 T EE006215
    PK04A010  C2004 02 20.83390 08 28 42.40 +19 58 37.3          18.1 T EE006215
    PK04A010  C2004 02 20.90043 08 28 41.01 +19 58 47.8                 EE006A46
    PK04A010  C2004 02 20.90494 08 28 40.86 +19 58 47.2                 EE006A46
    PK04A010  C2004 02 20.90832 08 28 40.70 +19 58 48.0                 EE006A46
    PK04A010  C2004 02 20.91058 08 28 40.60 +19 58 48.7                 EE006A46
    PK04A010  C2004 02 20.91284 08 28 40.61 +19 58 48.9                 EE006A46
    PK04A010  C2004 02 20.91566 08 28 40.57 +19 58 48.6                 EE006A46
    PK04A010  C2004 02 20.94924 08 28 39.86 +19 58 53.5          18.3 N EE006A33
    PK04A010  C2004 02 20.95387 08 28 39.73 +19 58 54.4          18.3 N EE006A33
    PK04A010  C2004 02 22.85483 08 27 58.96 +20 03 20.7          18.4 N EE006628
    PK04A010  C2004 02 22.87796 08 27 58.44 +20 03 24.0          18.1 N EE006628
    PK04A010  C2004 02 22.90109 08 27 57.94 +20 03 27.0          18.3 N EE006628
    PK04A010  C2004 02 22.95457 08 27 56.79 +20 03 34.1          18.3 N EE006213
    PK04A010  C2004 02 22.95569 08 27 56.77 +20 03 34.3                 EE006213
    PK04A010  C2004 02 22.95681 08 27 56.68 +20 03 35.1          18.5 N EE006213
    PK04A010  C2004 02 22.95904 08 27 56.70 +20 03 34.5          18.5 N EE006213
    PK04A010  C2004 02 26.22127 08 26 51.18 +20 10 50.6          18.9 T EE006704
    PK04A010  C2004 02 26.23259 08 26 50.92 +20 10 54.4          20.4 T EE006704
    PK04A010  C2004 02 26.24384 08 26 50.70 +20 10 55.2          20.2 T EE006704
    PK04A010  C2004 02 26.26661 08 26 50.06 +20 10 58.4          19.7 T EE006704
    PK04A010  C2004 02 26.96809 08 26 36.87 +20 12 27.5          17.5 T EE006A32
    PK04A010  C2004 02 26.98829 08 26 36.54 +20 12 27.2          17.6 T EE006A32
    PK04A010  C2004 02 28.89235 08 26 01.71 +20 16 26.8          18.6 N EE006170
    PK04A010  C2004 02 28.89985 08 26 01.60 +20 16 28.0          18.8 N EE006170
    PK04A010  C2004 02 28.96669 08 26 00.30 +20 16 36.7          18.2 N EE006213
    PK04A010  C2004 02 28.96857 08 26 00.25 +20 16 36.7                 EE006213

Observer details:
130 Lumezzane.  Observers C. Cremaschini, S. Foglia, W. Marinello, M. Micheli,
    G. Pizzetti, T. Zani.  0.40-m f/4.5 reflector + CCD.
170 Observatorio de Begues.  Observer J. Manteca.  0.36-m f/6.3 Schmidt
    Cassegrain + CCD.
213 Observatorio Montcabre.  Observer R. Naves.  Measurer M. Campas.  0.30-m
    f/5.5 Schmidt-Cassegrain + CCD.
215 Buchloe.  Observer W. Hasubick.  0.44-m f/4.6 reflector + CCD.
628 Mulheim-Ruhr.  Observers A. Boeker, A. Martin, K. Kleemann-Boeker,
    M. Tator.  0.25-m f/6.1 Schmidt-Cassegrain + CCD.
704 Lincoln Laboratory ETS, New Mexico.  Observers M. Blythe, F. Shelly,
    M. Bezpalko, R. Huber, L. Manguso, D. Torres, R. Kracke, M. McCleary,
    H. Stange, A. Milner.  Measurers J. Stuart, R. Sayer, J. Evans, J. Kommers.
    1.0-m f/2.15 reflector + CCD.
A32 Panker.  Observer H. Denzau.  0.36-m f/5.5 Schmidt-Cassegrain + CCD.
A33 Volkssternwarte Kirchheim.  Observer B. Brinkmann.  0.5-m f/5.0 reflector
    + CCD.
A46 Lelekovice.  Observer K. Hornoch.  0.35-m f/4.7 reflector + CCD.
D83 Miwa.  Observer Y. Ohshima.  0.25-m f/5 reflector + CCD.

Orbital elements:
    P/2004 A1
Epoch 2004 Aug. 23.0 TT = JDT 2453240.5
T 2004 Aug. 25.81382 TT                                 MPC
q   5.4626470            (2000.0)            P               Q
n   0.04441919     Peri.   20.48219     -0.82151936     -0.55012057
a   7.8962761      Node   125.24597     +0.49425101     -0.81815685
e   0.3081996      Incl.   10.57724     +0.28429188     -0.16729232
P  22.19
Residuals in seconds of arc
031025 691  0.3-  0.3-    040122 A46  0.3+  1.7-    040211 A46  1.1+  0.1+
031025 691  0.2-  0.1-    040122 A46  0.2+  1.6-    040211 A46  0.5-  0.7-
031025 691  0.2+  0.2-    040122 A46  1.8-  0.7+    040211 A46  0.9+  0.4-
031218 291  0.1-  0.2+    040122 A46  1.5-  0.4-    040211 A46  0.5-  0.3+
031218 291  0.1+  0.3+    040122 A46  1.3-  1.1-    040211 A46  0.1+  0.4-
031218 291  0.8+  0.1+    040123 H41 (0.9+  2.1-)   040212 691  0.0   0.0
040105 703  1.2-  0.6+    040123 H41  1.1+  0.9-    040212 691  0.2+  0.1-
040105 703  0.2-  0.2+    040123 H41 (2.6+  0.4+)   040212 691 (0.3-  2.1+)
040105 703 (2.6-  1.1-)   040123 H41 (2.1+  0.5-)   040212 360  0.5+  0.2-
040105 703 (1.2-  2.2-)   040123 H41  1.0-  1.5+    040212 360  1.0+  0.5-
040113 699  0.5-  0.7+    040123 900  1.6-  0.7-    040212 A46  0.1-  0.8+
040113 699  0.4+  0.1-    040123 900  0.3-  0.0     040212 A46  0.2-  0.6-
040113 699  0.2-  0.3-    040123 246  0.2+  0.4+    040212 A46  0.3-  0.4-
040113 699  0.7-  1.1+    040123 246  0.4+  0.3+    040212 A46  0.2+  0.2-
040113 673  0.7+  0.0     040123 246  0.5+  0.3+    040212 A46  0.1-  0.3+
040113 673  0.5+  0.1-    040123 246  0.6+  0.1+    040212 A46  0.0   0.3-
040113 673  0.6+  0.1+    040123 246  0.8+  0.1+    040213 442 (3.2+  3.1-)
040113 673  0.6+  0.1+    040124 704  0.2+  0.7+    040214 213  0.0   0.9-
040113 J95  0.1+  0.1-    040124 704  0.1+  0.6+    040214 213  0.1+  1.0-
040113 J95  0.2-  0.1+    040124 704  0.1-  1.2+    040214 130  0.2+  0.1+
040113 J95  0.3+  0.2-    040124 704  1.3+  1.1+    040214 130  0.4+  0.2+
040114 349  1.0-  0.2+    040124 704  0.1-  1.3+    040214 130  0.1-  0.5-
040114 349  0.4-  0.1-    040124 900  0.8-  0.2+    040214 A41  0.4+  1.2+
040114 349  0.8-  0.1+    040124 900  1.4-  0.5-    040214 A41  0.8+  0.5-
040114 J95  0.5+  0.5-    040125 372  0.5-  0.6-    040215 204  0.1+  0.4+
040114 J95  0.2+  1.2-    040126 699  0.3-  0.0     040216 704  0.7+  0.3+
040114 J95  0.4-  0.3-    040126 699  0.2-  0.2-    040216 704  0.3+  0.3+
040115 372  0.2-  0.4-    040126 699  0.1+  0.4-    040216 785  0.1-  1.5+
040115 360  0.4+  0.4-    040126 699  0.7-  0.5-    040216 704  0.5-  0.2-
040115 360  0.1-  0.3+    040127 704  0.4+  0.2+    040216 704  0.2-  0.0
040115 360  0.1+  0.5-    040127 704  0.1-  0.7+    040216 704  1.1-  0.1-
040116 204  1.0+  0.2-    040127 704  0.2+  0.4+    040216 785  0.3+  0.8+
040116 204  0.4+  0.5-    040127 704  0.1-  0.6+    040216 785  0.7-  0.1-
040116 204  0.3-  0.0     040127 704  0.1-  1.4+    040216 D83 (0.8-  4.0-)
040116 644  0.2+  0.1-    040128 704  0.7+  0.1-    040216 D83  1.0+  0.3+
040116 644  0.3-  0.2+    040128 704  0.5+  0.2+    040216 D83  1.1-  1.2+
040116 644  0.3+  0.2+    040128 704  0.1+  0.6+    040216 246  0.4+  0.1-
040117 J95  0.6+  0.0     040128 704  0.6+  0.7+    040216 246  0.3+  0.2+
040117 J95  0.1+  0.2+    040128 704  0.6-  0.5+    040216 246  0.2+  0.2+
040117 J95  1.2+  0.5-    040128 213  0.5-  0.4-    040216 246  0.2+  0.1-
040117 900  1.9-  0.0     040128 213  0.5-  0.6-    040216 246  0.5+  0.2+
040117 360  0.4+  0.4-    040128 442  0.8-  0.6+    040216 246  0.3+  0.0
040117 360  0.6+  0.6-    040130 704  0.3+  0.8+    040216 246  0.2-  0.0
040117 900  0.2-  0.6-    040130 704  0.9+  0.6+    040217 608  0.4-  0.8+
040118 J95  0.3+  0.4-    040130 704  0.7+  0.5+    040217 608  0.3-  0.9+
040118 J95  0.8+  0.2-    040130 704  0.2-  0.3-    040217 608  0.5+  0.6+
040118 J95  0.3+  0.2-    040130 704  0.6-  1.1+    040217 A41  0.4-  0.2-
040119 699  0.3-  0.6-    040131 900  0.4+  0.1-    040217 A41  1.0-  0.5-
040119 699  0.4-  0.1-    040131 900  0.3+  0.4+    040217 A41  0.6-  1.0-
040119 699  0.5-  0.1-    040131 349  0.3-  0.0     040218 360  0.4+  0.1-
040119 699  0.4+  0.6-    040131 349  0.3-  0.6-    040218 360  0.1-  0.0
040119 691  0.2-  0.0     040131 349  0.3+  0.8-    040219 850  0.1-  0.3+
040119 703  0.2+  0.3+    040131 360  0.6+  0.0     040219 850  0.7-  1.1-
040119 691  0.1-  0.1+    040131 360  0.5+  0.3-    040219 850  0.0   0.3-
040119 703  0.4+  0.2+    040201 785  0.5-  0.7-    040220 215  0.1+  0.4-
040119 703  0.2-  0.5+    040201 785 (0.8+  2.4-)   040220 215  0.6-  0.5-
040119 691  0.2-  0.1+    040209 104  0.4+  0.0     040220 A46  1.1+  0.5+
040119 703 (2.5-  0.9-)   040209 104  0.4-  0.2-    040220 A46  0.4+  0.7-
040119 372  1.2+  1.0-    040209 104  0.0   0.2+    040220 A46  0.8-  0.4-
040119 372  1.1+  1.2-    040209 104  0.2+  0.1-    040220 A46  1.5-  0.0
040119 J87  0.1+  0.6-    040209 104  0.5+  0.2-    040220 A46  0.6-  0.1-
040119 J87  0.0   0.3-    040209 170  0.7+  1.2-    040220 A46  0.3-  0.8-
040120 H41  0.2-  1.0+    040209 170  0.0   0.4-    040220 A33  0.2+  0.6-
040120 H41  0.2-  0.9+    040210 644  0.1+  0.0     040220 A33  0.1-  0.4-
040120 H41  0.5-  0.4+    040210 644  0.1-  0.7-    040222 628  0.3+  0.3+
040120 H41  0.1+  0.6+    040210 644  0.5+  0.0     040222 628  0.0   0.4+
040120 H41  0.8-  0.7+    040210 D83  0.0   1.0-    040222 628  0.0   0.2+
040121 704  0.2+  0.1+    040210 D83  0.2-  0.4-    040222 213  0.1-  0.4-
040121 704  0.7+  0.5+    040210 D83  0.2-  0.3-    040222 213  0.0   0.3-
040121 704  0.3+  0.5+    040210 104  0.0   0.6+    040222 213  0.9-  0.3+
040121 704  0.7+  0.5+    040210 104  0.1+  0.0     040222 213  0.0   0.6-
040121 704  0.1+  0.2+    040210 104  0.4+  0.1+    040226 704  1.4+  0.1-
040121 372  0.3+  0.8+    040210 104  0.6+  0.1+    040226 704 (0.9+  2.3+)
040121 372  0.3+  0.2+    040210 104  0.1+  0.0     040226 704  1.0+  1.6+
040122 H41  0.9-  0.4-    040211 104  0.0   0.1+    040226 704  1.7-  1.9+
040122 H41  0.9-  0.7+    040211 104  0.2+  0.2-    040226 A32  0.5+  1.5+
040122 H41  1.0-  0.7-    040211 104  0.6+  0.0     040226 A32  1.4+  1.4-
040122 349  0.0   0.4-    040211 213  1.1-  0.1+    040228 170  0.1-  0.5-
040122 349  0.3+  0.5-    040211 213  0.1+  1.1-    040228 170  0.3+  0.2-
040122 349  0.4+  0.1-    040211 A46  0.6-  0.7+    040228 213  0.8-  0.3+
040122 A46  0.6-  0.4+    040211 213  0.4-  0.0     040228 213  1.0-  0.1+

Brian G. Marsden             (C) Copyright 2004 MPC           M.P.E.C. 2004-E06

Read MPEC 2004-E05 Read MPEC 2004-E07


Our Web policy. Index to the CBAT/MPC/ICQ pages.


Valid HTML 4.01!